User: anonymous   Login
Location: Unspecified
(0.0000°N, 0.0000°E)
Time: 00:33:33
(UTC+00:00)
Language:

PAYLOAD B - Orbit

View from above orbital plane
View from above orbital plane
View from above satellite
View from above satellite

Ground track
Ground track

The orbit data is extracted from the following two-line orbital elements,

1 27056U 01058B   24106.55007663  .00000026  00000-0  87683-4 0  9993
2 27056  82.5426   6.7632 0005132 215.6841 213.7923 12.60536709 25914
Epoch (UTC): 15 April 2024 13:12:06
Eccentricity: 0.0005132
inclination: 82.5426°
perigee height: 1417 km
apogee height: 1425 km
right ascension of ascending node: 6.7632°
argument of perigee: 215.6841°
revolutions per day: 12.60536709
mean anomaly at epoch: 213.7923°
orbit number at epoch: 2591

The dashed part of the orbit path shows where the satellite is in the earth's shadow,  

DLR